Airport Information

KYKM - Yakima Air Terminal McAllister Field Airport

KYKM 172208Z 26017G28KT 10SM FEW050 SCT060 BKN070 14/01 A2949 RMK AO2 PK WND 27029/2155 WSHFT 2148 T01440006


  • General Information

  • Coordinates: N 46°34'5"/ W 120°32'38"
  • Location: N/A
  • Surveyed Elevation: 1095 MSL

Operations

Flow Name Active Runways Conditions

Green background denotes normal operations.


Common Frequencies

Callsign Frequency Position Name

More at the Document Center


Charts

Under Construction